Weather History for Liberal, KS

Change the Weather History Date:

Sunday, December 8, 2013

  Actual Average Record
Temperature  
Mean Temperature 22 °F -  
Max Temperature 35 °F 48 °F 72 °F (1970)
Min Temperature 10 °F 23 °F -5 °F (2005)
Degree Days  
Heating Degree Days 42    
Moisture  
Dew Point 13 °F    
Average Humidity 70    
Maximum Humidity 80    
Minimum Humidity 56    
Precipitation  
Precipitation 0.00 in - - ()
Sea Level Pressure  
Sea Level Pressure 29.92 in    
Wind  
Wind Speed 13 mph (East)    
Max Wind Speed 25 mph    
Max Gust Speed 30 mph    
Visibility 10 miles    
Events      
Averages and records for this station are not official NWS values.
T = Trace of Precipitation, MM = Missing Value Source: NWS Daily Summary

Daily Weather History Graph

Daily Weather History Graph

Search for Another Location

Airport:

Trip Planner

Search our weather history database for the weather conditions in past years. The results will help you decide how hot, cold, wet, or windy it might be!

Date:

Astronomy

Dec. 08, 2013 Rise Set
Actual Time 7:44 AM CST 5:26 PM CST
Civil Twilight 7:16 AM CST 5:55 PM CST
Nautical Twilight 6:43 AM CST 6:28 PM CST
Astronomical Twilight 6:12 AM CST 6:59 PM CST
Moon 12:13 PM CST (12/8) No Moon Set
Length of Visible Light 10h 39m
Length of Day
9h 41m
Waxing Crescent, 40% of the Moon is Illuminated
Dec 8
Waxing Crescent
Dec 9
First Quarter
Dec 17
Full
Dec 25
Last Quarter
Jan 1
New

Hourly Weather History & Observations

Time (CST) Temp. Windchill Dew Point Humidity Pressure Visibility Wind Dir Wind Speed Gust Speed Precip Events Conditions
12:15 AM 15.8 °F -0.6 °F 6.8 °F 68% 29.99 in 10.0 mi SSE 18.4 mph 23.0 mph N/A   Overcast
12:35 AM 15.8 °F 1.4 °F 6.8 °F 68% 30.00 in 10.0 mi SSE 13.8 mph 18.4 mph N/A   Overcast
12:55 AM 15.8 °F 0.9 °F 8.6 °F 73% 29.99 in 10.0 mi SSE 15.0 mph - N/A   Overcast
1:15 AM 15.8 °F 2.1 °F 8.6 °F 73% 29.97 in 10.0 mi SSE 12.7 mph - N/A   Overcast
1:35 AM 17.6 °F 3.2 °F 8.6 °F 68% 29.95 in 10.0 mi SSE 15.0 mph - N/A   Overcast
1:55 AM 17.6 °F 3.2 °F 8.6 °F 68% 29.93 in 10.0 mi SSE 15.0 mph - N/A   Overcast
2:15 AM 17.6 °F 2.7 °F 8.6 °F 68% 29.91 in 10.0 mi SSE 16.1 mph - N/A   Overcast
2:35 AM 17.6 °F 2.2 °F 8.6 °F 68% 29.91 in 10.0 mi SSE 17.3 mph - N/A   Overcast
2:55 AM 17.6 °F 5.7 °F 8.6 °F 68% 29.90 in 10.0 mi SSE 10.4 mph - N/A   Overcast
3:15 AM 17.6 °F 6.4 °F 8.6 °F 68% 29.91 in 10.0 mi SE 9.2 mph - N/A   Overcast
3:35 AM 17.6 °F 6.4 °F 8.6 °F 68% 29.90 in 10.0 mi SE 9.2 mph - N/A   Overcast
3:55 AM 17.6 °F 5.0 °F 8.6 °F 68% 29.89 in 10.0 mi SSE 11.5 mph - N/A   Overcast
4:15 AM 17.6 °F 4.3 °F 8.6 °F 68% 29.87 in 10.0 mi SE 12.7 mph - N/A   Overcast
4:35 AM 17.6 °F 5.0 °F 8.6 °F 68% 29.85 in 10.0 mi SE 11.5 mph - N/A   Overcast
4:55 AM 17.6 °F 7.3 °F 10.4 °F 73% 29.86 in 10.0 mi SSE 8.1 mph - N/A   Overcast
5:15 AM 19.4 °F 9.5 °F 12.2 °F 74% 29.85 in 10.0 mi SSE 8.1 mph - N/A   Overcast
5:35 AM 19.4 °F 7.9 °F 12.2 °F 74% 29.85 in 10.0 mi SSE 10.4 mph - N/A   Overcast
5:55 AM 19.4 °F 5.0 °F 12.2 °F 74% 29.84 in 10.0 mi SSE 16.1 mph - N/A   Overcast
6:15 AM 19.4 °F 7.9 °F 12.2 °F 74% 29.84 in 10.0 mi SSE 10.4 mph - N/A   Overcast
6:35 AM 19.4 °F 6.6 °F 12.2 °F 74% 29.84 in 10.0 mi SSE 12.7 mph - N/A   Overcast
6:55 AM 19.4 °F 7.2 °F 12.2 °F 74% 29.83 in 10.0 mi SE 11.5 mph - N/A   Overcast
7:15 AM 19.4 °F 8.6 °F 12.2 °F 74% 29.83 in 10.0 mi SSE 9.2 mph - N/A   Overcast
7:35 AM 19.4 °F 7.9 °F 14.0 °F 80% 29.83 in 10.0 mi SE 10.4 mph - N/A   Overcast
7:55 AM 19.4 °F 7.9 °F 14.0 °F 80% 29.83 in 10.0 mi SE 10.4 mph - N/A   Overcast
8:15 AM 21.2 °F 9.5 °F 14.0 °F 74% 29.82 in 10.0 mi SE 11.5 mph - N/A   Overcast
8:35 AM 21.2 °F 10.1 °F 15.8 °F 80% 29.82 in 10.0 mi SE 10.4 mph - N/A   Overcast
8:55 AM 21.2 °F 9.5 °F 15.8 °F 80% 29.81 in 10.0 mi SE 11.5 mph - N/A   Overcast
9:15 AM 21.2 °F 9.5 °F 15.8 °F 80% 29.81 in 10.0 mi SE 11.5 mph - N/A   Overcast
9:35 AM 23.0 °F 12.4 °F 15.8 °F 74% 29.82 in 10.0 mi SE 10.4 mph - N/A   Overcast
9:55 AM 24.8 °F 15.3 °F 17.6 °F 74% 29.82 in 10.0 mi SSE 9.2 mph - N/A   Overcast
10:15 AM 24.8 °F 14.6 °F 17.6 °F 74% 29.81 in 10.0 mi SSE 10.4 mph - N/A   Overcast
10:35 AM 26.6 °F 17.5 °F 19.4 °F 74% 29.82 in 10.0 mi SSE 9.2 mph - N/A   Overcast
10:55 AM 28.4 °F 19.1 °F 21.2 °F 74% 29.81 in 10.0 mi SSE 10.4 mph - N/A   Overcast
11:15 AM 30.2 °F 23.4 °F 23.0 °F 75% 29.82 in 10.0 mi South 6.9 mph - N/A   Mostly Cloudy
11:35 AM 33.8 °F 24.3 °F 24.8 °F 70% 29.82 in 10.0 mi WSW 13.8 mph - N/A   Mostly Cloudy
11:55 AM 33.8 °F 23.5 °F 24.8 °F 70% 29.81 in 10.0 mi SW 16.1 mph - N/A   Overcast
12:15 PM 33.8 °F 25.8 °F 24.8 °F 70% 29.81 in 10.0 mi WSW 10.4 mph - N/A   Overcast
12:35 PM 35.6 °F 26.6 °F 26.6 °F 70% 29.80 in 10.0 mi WNW 13.8 mph 20.7 mph N/A   Overcast
12:55 PM 33.8 °F 23.9 °F 21.2 °F 60% 29.80 in 10.0 mi NW 15.0 mph - N/A   Partly Cloudy
1:15 PM 33.8 °F 24.3 °F 21.2 °F 60% 29.80 in 10.0 mi NW 13.8 mph - N/A   Clear
1:35 PM 33.8 °F 25.3 °F 21.2 °F 60% 29.81 in 10.0 mi NW 11.5 mph 17.3 mph N/A   Clear
1:55 PM 33.8 °F 23.9 °F 19.4 °F 56% 29.82 in 10.0 mi NW 15.0 mph - N/A   Clear
2:15 PM 33.8 °F 23.5 °F 19.4 °F 56% 29.82 in 10.0 mi NW 16.1 mph - N/A   Clear
2:35 PM 33.8 °F 22.8 °F 19.4 °F 56% 29.84 in 10.0 mi NW 18.4 mph - N/A   Clear
2:55 PM 33.8 °F 23.2 °F 19.4 °F 56% 29.84 in 10.0 mi NW 17.3 mph 21.9 mph N/A   Clear
3:15 PM 33.8 °F 23.5 °F 19.4 °F 56% 29.85 in 10.0 mi NW 16.1 mph - N/A   Clear
3:35 PM 33.8 °F 21.3 °F 19.4 °F 56% 29.86 in 10.0 mi NNW 24.2 mph 28.8 mph N/A   Clear
3:55 PM 32.0 °F 19.5 °F 19.4 °F 60% 29.89 in 10.0 mi North 21.9 mph 27.6 mph N/A   Partly Cloudy
4:15 PM 30.2 °F 16.5 °F 17.6 °F 60% 29.93 in 10.0 mi North 24.2 mph 29.9 mph N/A   Mostly Cloudy
4:35 PM 26.6 °F 11.4 °F 14.0 °F 59% 29.95 in 10.0 mi North 25.3 mph 28.8 mph N/A   Overcast
4:55 PM 24.8 °F 11.9 °F 12.2 °F 59% 29.97 in 10.0 mi North 16.1 mph - N/A   Overcast
5:15 PM 23.0 °F 9.2 °F 12.2 °F 63% 29.98 in 10.0 mi North 17.3 mph - N/A   Overcast
5:35 PM 21.2 °F 7.3 °F 12.2 °F 68% 29.99 in 10.0 mi North 16.1 mph - N/A   Overcast
5:55 PM 19.4 °F 4.5 °F 12.2 °F 74% 29.99 in 10.0 mi North 17.3 mph - N/A   Scattered Clouds
6:15 PM 19.4 °F 6.6 °F 10.4 °F 68% 30.01 in 10.0 mi North 12.7 mph - N/A   Clear
6:35 PM 17.6 °F 5.7 °F 10.4 °F 73% 30.03 in 10.0 mi North 10.4 mph - N/A   Clear
6:55 PM 17.6 °F 5.0 °F 10.4 °F 73% 30.03 in 10.0 mi North 11.5 mph - N/A   Clear
7:15 PM 17.6 °F 6.4 °F 10.4 °F 73% 30.05 in 10.0 mi North 9.2 mph - N/A   Clear
7:35 PM 17.6 °F 5.0 °F 8.6 °F 68% 30.06 in 10.0 mi North 11.5 mph - N/A   Clear
7:55 PM 15.8 °F 5.1 °F 8.6 °F 73% 30.07 in 10.0 mi NNE 8.1 mph - N/A   Clear
8:15 PM 15.8 °F 6.1 °F 8.6 °F 73% 30.08 in 10.0 mi North 6.9 mph - N/A   Clear
8:35 PM 15.8 °F 5.1 °F 8.6 °F 73% 30.08 in 10.0 mi North 8.1 mph - N/A   Clear
8:55 PM 14.0 °F 5.1 °F 6.8 °F 73% 30.08 in 10.0 mi North 5.8 mph - N/A   Clear
9:15 PM 14.0 °F 8.2 °F 8.6 °F 79% 30.09 in 10.0 mi North 3.5 mph - N/A   Clear
9:35 PM 12.2 °F 6.1 °F 5.0 °F 73% 30.10 in 10.0 mi North 3.5 mph - N/A   Clear
9:55 PM 12.2 °F 2.9 °F 5.0 °F 73% 30.10 in 10.0 mi North 5.8 mph - N/A   Clear
10:15 PM 12.2 °F 4.3 °F 5.0 °F 73% 30.09 in 10.0 mi NNE 4.6 mph - N/A   Clear
10:35 PM 12.2 °F 0.7 °F 6.8 °F 79% 30.10 in 10.0 mi North 8.1 mph - N/A   Clear
10:55 PM 10.4 °F -1.5 °F 5.0 °F 79% 30.10 in 10.0 mi North 8.1 mph - N/A   Clear
11:15 PM 10.4 °F 2.2 °F 5.0 °F 79% 30.11 in 10.0 mi North 4.6 mph - N/A   Clear
11:35 PM 12.2 °F - 5.0 °F 73% 30.14 in 10.0 mi Calm Calm - N/A   Clear
11:55 PM 10.4 °F 4.0 °F 3.2 °F 73% 30.13 in 10.0 mi North 3.5 mph - N/A   Clear